Location: Newark
(37.7733°N, 97.7642°W)
Time: 01:00:44
(UTC+00:00)

Hubble Space Telescope - Visible Passes

Search period start: 20 August 2019 00:00
Search period end: 30 August 2019 00:00
Orbit: 536 x 540 km, 28.5° (Epoch: 18 August)

Date Brightness Start Highest point End Pass type
(mag) Time Alt. Az. Time Alt. Az. Time Alt. Az.
20 Aug 2.5 02:38:57 10° SW 02:41:46 18° S 02:42:43 17° S visible
21 Aug 2.7 02:28:33 10° SW 02:31:07 16° SSW 02:32:38 14° SSE visible
22 Aug 3.0 02:18:15 10° SW 02:20:28 14° SSW 02:22:35 10° SSE visible
23 Aug 3.1 02:08:08 10° SW 02:09:47 12° SSW 02:11:29 10° S visible
24 Aug 3.3 01:58:44 10° SSW 01:59:07 10° SSW 01:59:31 10° SSW visible
